Regional Weather Roundup
Issued by NWS

Home | Current Version | Previous Version | Graphics & Text | Print | Product List | Glossary On
Versions: 1 2 3 4 5 6 7 8 9 10 11 12 13 14 15 16 17 18 19 20 21 22 23 24 25 26 27 28 29 30 31 32 33 34 35 36 37 38 39 40 41 42 43 44 45 46 47 48 49 50
000
ASUS43 KDMX 091608
RWRIA

WEATHER ROUNDUP FOR IOWA
NATIONAL WEATHER SERVICE DES MOINES IA
1000 AM CST TUE FEB 09 2016

NOTE: "FAIR" INDICATES FEW OR NO CLOUDS BELOW 12,000 FEET WITH NO
SIGNIFICANT WEATHER AND/OR OBSTRUCTIONS TO VISIBILITY.

* - THESE STATIONS ARE NOT NWS STATIONS...THUS NOT UNDER NWS
QUALITY CONTROL.  THEY ALSO DO NOT REPORT WEATHER SUCH
AS PRECIPITATION OR FOG.

IAZ001>003-012>014-020>022-031>034-043>046-091700-
   NORTHWEST IOWA

CITY           SKY/WX    TMP DP  RH WIND       PRES   REMARKS
CARROLL *      SUNNY      9   3  78 NW23G31   30.16S WCI -12
CHEROKEE *     SUNNY      9   1  72 N20G26    30.21S WCI -11
DENISON *      SUNNY     10   3  72 N18G26    30.19R WCI  -8
LE MARS *      SUNNY     10   3  72 NW20G25   30.27S WCI  -8
ORANGE CITY *  SUNNY      9   1  72 NW16      30.22R WCI  -9
SHELDON *      SUNNY      7   1  78 NW21      30.20R WCI -13
SIOUX CITY     MOSUNNY   13   3  64 NW17G24   30.27R WCI  -4
SPENCER        SUNNY      8  -1  66 NW21      30.18R WCI -12
STORM LAKE *   SUNNY      9   1  72 N24G31    30.17R WCI -12
$$

IAZ055>058-069>071-079>083-090>094-091700-
   SOUTHWEST IOWA

CITY           SKY/WX    TMP DP  RH WIND       PRES   REMARKS
ATLANTIC *     CLOUDY    10   1  67 N22G28    30.20R HAZE    WCI  -9
AUDUBON *      SUNNY      9   1  72 NW18G26   30.16R WCI -10
CLARINDA *     CLOUDY    14   7  73 N17G26    30.23R WCI  -3
COUNCIL BLFS * SUNNY     14   3  62 N21G30    30.21S WCI  -4
CRESTON *      PTSUNNY   10   3  72 NW22G31   30.15R WCI  -9
HARLAN  *      SUNNY     10   3  72 N24G30    30.22S WCI -10
LAMONI         SUNNY     14   4  64 NW15G25   30.12R WCI  -1
RED OAK *      PTSUNNY   14   5  67 N22G29    30.22R WCI  -4
SHENANDOAH *   CLOUDY    18   7  62 N20G26    30.24R WCI   1
$$

IAZ047>049-059>061-072>074-084-091700-
   CENTRAL IOWA

CITY           SKY/WX    TMP DP  RH WIND       PRES   REMARKS
AMES           MOSUNNY   10   2  69 N21G29    30.12R WCI  -9
ANKENY *       CLOUDY    10   3  72 N21G30    30.13R WCI  -9
BOONE *        PTSUNNY    9   1  72 NW21G30   30.10R WCI -11
CHARITON *     FLURRIES  12   3  67 NW22G28   30.10R WCI  -7
DES MOINES     MOSUNNY   11   2  67 NW18G26   30.13R WCI  -7
GRINNELL*      PTSUNNY   10   5  79 NW20G25   30.06R WCI  -8
KNOXVILLE *    FLURRIES  12   3  67 NW26      30.08R WCI  -8
MARSHALLTOWN   CLOUDY     9   2  73 NW23      30.07R WCI -11
NEWTON *       FLURRIES  10   3  72 N24G32    30.09R WCI -10
PELLA *        PTSUNNY   12   5  73 NW20G32   30.11R HAZE    WCI  -6
$$

IAZ004>006-015-016-023>025-035-036-091700-
   NORTH CENTRAL IOWA

CITY           SKY/WX    TMP DP  RH WIND       PRES   REMARKS
ALGONA *       PTSUNNY    9   1  72 N18G28    30.12R WCI -10
CLARION *      PTSUNNY    7   0  72 N28       30.10R WCI -16
ESTHERVILLE    SUNNY      6   1  80 NW25      30.14R WCI -16
FORT DODGE *   SUNNY      9   0  66 N15G25    30.15R WCI  -8
MASON CITY     CLOUDY     7   1  76 NW28      30.08R BLWGSNOWWCI -16
FOREST CITY *  SUNNY      9   1  72 NW21G29   30.08R WCI -11
WEBSTER CITY * CLOUDY     9   1  72 NW30      30.10R WCI -14
IOWA FALLS *   CLOUDY     9   3  78 NW23G31   30.09R WCI -12
$$

IAZ007>011-017>019-026>030-037>042-050>054-066-091700-
   NORTHEAST IOWA

CITY           SKY/WX    TMP DP  RH WIND       PRES   REMARKS
CEDAR RAPIDS   CLOUDY    12   6  77 N22G33    30.00R BLWGSNOWWCI  -7
CHARLES CITY * CLOUDY     7   1  78 NW24G32   30.04R WCI -15
CLINTON *      FLURRIES  13   6  74 NW16      29.96R WCI  -3
DECORAH *      PTSUNNY    7  -2  66 N23G30    29.98R WCI -14
MONTICELLO *   CLOUDY    12   3  67 NW23      29.98R WCI  -7
OELWEIN *      PTSUNNY    9   1  72 N21G29    30.01R HAZE    WCI -11
WATERLOO       CLOUDY     9   2  73 NW22      30.04R HAZE    WCI -11
$$

IAZ064-065-067-068-078-091700-
   EAST CENTRAL IOWA

CITY           SKY/WX    TMP DP  RH WIND       PRES   REMARKS
DAVENPORT      PTSUNNY   15   6  67 NW21      29.96R WCI  -2
IOWA CITY      CLOUDY    14   5  67 NW22G28   30.03R WCI  -4
MT. PLEASANT * CLOUDY    18   9  68 NW16G26   30.02R WCI   3
MUSCATINE *    PTSUNNY   16   5  62 NW21G29   30.03R WCI  -2
QUAD CITIES    CLOUDY    16   5  62 NW22G28   29.96R WCI  -2
$$

IAZ062-063-075>077-085>089-095>099-091700-
   SOUTHEAST IOWA

CITY           SKY/WX    TMP DP  RH WIND       PRES   REMARKS
BURLINGTON     LGT SNOW  14   7  73 NW15G28   30.00R WCI  -1
FAIRFIELD *    FLURRIES  14   5  67 NW23      30.04R WCI  -5
FORT MADISON * CLOUDY    16   7  67 NW21G26   30.01R WCI  -2
KEOKUK *       CLOUDY    16   7  67 NW18G29   30.02R WCI  -1
OSKALOOSA *    CLOUDY    12   5  73 NW23      30.07R WCI  -7
CENTERVILLE *  FLURRIES  16   7  67 NW18      30.08S WCI  -1
OTTUMWA        LGT SNOW  12   6  77 NW25G35   30.07R WCI  -8
WASHINGTON *   CLOUDY    14   5  67 NW25G32   30.04R WCI  -5
$$

ABBREVIATIONS USED IN REMARKS
   TC - TEMPERATURES IN CELSIUS
  WCI - WIND CHILL INDEX
   HX - HEAT INDEX
  VSB - VISIBILITY
$$




USA.gov is the U.S. government's official web portal to all federal, state and local government web resources and services.